Location: Roanoke
(37.2710°N, 79.9420°W)
Time: 13:08:22
(UTC-05:00)

Courier 1B Rocket - Pass Details

Date: 18 November 2019
Orbit: 920 x 1202 km, 28.2° (Epoch: 14 December)

Event Time Altitude Azimuth Distance (km) Brightness Sun altitude
Rises 17:38:02 0° 257° (WSW) 3,919 10.7 -6.4°
Reaches altitude 10° 17:40:53 10° 250° (WSW) 3,000 9.4 -7.0°
Maximum altitude 17:47:50 43° 182° (S) 1,596 6.3 -8.3°
Drops below altitude 10° 17:55:04 10° 114° (ESE) 3,121 7.2 -9.7°
Enters shadow 17:56:59 - 110° (ESE) 3,730 7.6 -10.0°
Sets 17:58:05 0° 108° (ESE) 4,092 - -10.2°
